Date,TemperatureHighF,TemperatureAvgF,TemperatureLowF,DewpointHighF,DewpointAvgF,DewpointLowF,HumidityHigh,HumidityAvg,HumidityLow,PressureMaxIn,PressureMinIn,WindSpeedMaxMPH,WindSpeedAvgMPH,GustSpeedMaxMPH,PrecipitationSumIn
2014-1-1,43.6,40.9,37.8,41.7,40.0,37.4,99,97,92,30.43,30.27,6,1,6,0.02
2014-1-2,49.2,44.6,41.4,44.7,42.4,40.6,98,92,75,30.27,29.92,9,2,16,0.61
2014-1-3,45.4,40.9,38.2,43.7,37.3,35.3,97,87,69,30.38,30.01,7,1,8,0.02
2014-1-4,43.4,38.1,34.2,37.6,35.0,32.1,98,89,74,30.49,30.38,7,1,7,0.01
2014-1-5,44.9,36.6,30.6,35.9,32.5,29.1,96,86,66,30.53,30.34,4,1,7,0.01
2014-1-6,43.8,38.7,33.9,37.5,34.0,31.5,95,84,64,30.34,30.16,10,1,10,0.00
2014-1-7,45.6,42.7,39.3,44.0,41.6,35.3,98,96,77,30.16,30.01,11,2,11,0.40
2014-1-8,47.8,46.0,44.2,46.8,44.7,40.8,98,95,89,30.03,29.69,19,4,19,0.40
2014-1-9,46.9,43.4,40.2,45.3,40.8,37.4,98,91,84,30.01,29.73,17,4,17,0.10
2014-1-10,48.5,46.3,45.1,47.4,43.4,42.0,96,90,86,30.11,29.56,20,5,22,0.18
2014-1-11,53.9,46.0,40.2,49.6,42.9,37.6,96,89,84,29.81,29.36,30,7,30,1.06
2014-1-12,50.1,45.8,40.2,47.4,42.6,37.5,95,89,79,30.32,29.81,18,4,19,0.01
2014-1-13,51.3,49.2,48.2,47.6,46.3,44.9,92,90,87,30.65,30.32,26,4,26,0.00
2014-1-14,49.5,47.9,45.3,47.3,46.0,43.7,96,93,89,30.69,30.60,7,1,10,0.00
2014-1-15,50.1,45.7,41.9,45.5,43.5,40.8,97,92,80,30.64,30.53,6,1,6,0.00
2014-1-16,42.8,40.6,38.9,41.4,39.7,38.1,98,96,91,30.53,30.38,5,1,8,0.00
2014-1-17,42.2,38.8,36.5,39.8,37.8,36.0,99,96,90,30.39,30.21,5,1,7,0.00
2014-1-18,44.5,38.8,33.9,40.6,37.3,33.4,98,94,85,30.30,30.19,10,1,10,0.00
2014-1-19,41.0,38.4,35.4,40.7,37.8,34.6,99,98,95,30.35,30.19,7,1,8,0.01
2014-1-20,47.2,40.5,36.8,40.2,37.5,35.5,96,89,74,30.38,30.29,6,1,6,0.00
2014-1-21,48.4,40.8,33.8,41.8,38.4,33.3,99,92,73,30.36,30.23,13,1,13,0.01
2014-1-22,46.7,43.9,41.6,44.2,41.9,39.4,97,93,88,30.47,30.36,8,1,9,0.01
2014-1-23,48.0,42.4,39.1,41.2,39.1,37.5,95,89,73,30.49,30.40,8,2,8,0.00
2014-1-24,52.5,43.1,35.8,43.3,38.9,34.9,98,86,58,30.45,30.30,4,1,5,0.01
2014-1-25,52.4,41.9,33.8,42.6,37.5,33.2,99,86,61,30.41,30.29,4,0,4,0.01
2014-1-26,44.6,38.5,33.9,39.1,36.4,33.1,98,93,80,30.29,30.12,4,1,6,0.01
2014-1-27,46.8,38.3,32.8,39.5,36.4,32.3,99,93,64,30.25,30.14,8,1,8,0.01
2014-1-28,48.3,45.5,42.3,44.1,41.1,35.7,97,85,68,30.25,29.91,6,1,6,0.37
2014-1-29,49.4,44.9,42.8,48.4,44.0,41.8,99,97,93,29.91,29.64,11,2,16,0.67
2014-1-30,45.7,43.1,40.6,42.8,39.3,38.1,97,87,76,29.94,29.82,18,5,18,0.01
2014-1-31,44.6,40.6,38.7,40.2,35.8,27.8,97,84,62,30.18,29.94,10,2,10,0.20
2014-2-1,42.2,39.3,35.9,39.3,36.7,31.2,97,91,74,30.21,30.10,5,1,5,0.08
2014-2-2,44.6,37.1,31.3,35.9,31.7,23.2,98,82,55,30.11,29.96,13,2,13,0.01
2014-2-3,37.9,34.9,32.3,27.3,22.2,15.9,78,60,43,30.22,30.03,20,3,20,0.00
2014-2-4,35.9,30.8,27.2,23.7,15.6,-99.9,77,57,45,30.45,30.22,10,-23,10,0.00
2014-2-5,30.2,24.9,20.4,10.4,4.5,0.1,52,42,31,30.52,30.35,14,2,14,0.00
2014-2-6,28.5,24.7,20.4,15.0,5.7,1.0,64,44,33,30.35,29.82,15,2,15,0.00
2014-2-7,36.2,28.6,22.6,20.7,18.5,13.9,84,66,48,29.98,29.79,9,2,9,0.00
2014-2-8,39.1,32.7,29.0,29.7,22.1,15.3,95,67,43,30.05,29.86,5,1,11,0.00
2014-2-9,36.4,33.6,30.4,34.7,31.6,27.8,96,92,88,30.12,29.97,8,1,8,0.25
2014-2-10,48.4,42.1,35.7,46.2,40.4,33.7,98,94,88,30.09,30.01,21,4,21,0.48
2014-2-11,51.0,46.4,44.3,45.6,43.6,42.1,96,90,75,30.16,29.59,15,3,15,0.64
2014-2-12,52.4,48.5,43.6,48.5,42.3,38.5,97,80,60,29.90,29.49,20,5,24,0.12
2014-2-13,54.1,48.0,43.6,45.7,40.6,35.8,96,76,56,30.08,29.73,27,4,27,0.00
2014-2-14,52.6,46.7,41.9,46.3,42.2,34.3,96,85,64,29.97,29.60,20,4,20,0.41
2014-2-15,49.1,42.5,38.9,46.8,39.0,34.9,95,88,69,29.96,29.27,33,2,33,0.56
2014-2-16,46.0,41.8,37.5,41.4,37.5,34.9,94,85,68,29.98,29.67,24,6,24,1.13
2014-2-17,46.5,41.8,38.6,41.2,38.6,36.3,96,89,74,29.96,29.73,14,5,19,0.17
2014-2-18,46.7,42.7,39.6,44.1,39.6,35.0,95,89,80,29.98,29.57,22,5,22,0.62
2014-2-19,46.2,41.1,37.8,37.9,36.1,34.6,91,83,66,30.15,29.87,15,4,15,0.01
2014-2-20,49.4,44.4,40.1,41.6,39.2,34.9,93,82,65,30.23,30.01,15,4,19,0.03
2014-2-21,41.6,39.7,38.0,38.0,36.1,33.1,93,87,77,30.32,30.22,10,1,10,0.08
2014-2-22,39.7,37.5,35.1,37.2,35.5,33.8,96,93,83,30.26,30.05,11,2,11,0.13
2014-2-23,42.8,39.7,36.1,39.5,37.0,35.1,97,90,82,30.08,29.96,9,2,9,0.19
2014-2-24,41.1,38.7,36.0,40.5,37.9,35.2,98,97,97,30.14,30.05,7,1,7,0.29
2014-2-25,52.6,43.7,37.8,41.9,38.4,35.1,97,82,65,30.15,30.01,9,2,9,0.02
2014-2-26,56.0,47.1,40.9,40.3,37.1,33.2,87,69,50,30.01,29.71,7,1,7,0.00
2014-2-27,52.4,46.7,40.8,42.0,39.1,36.5,87,75,63,29.77,29.65,7,1,7,0.00
2014-2-28,55.0,47.4,42.0,43.6,37.0,26.5,93,69,46,29.76,29.53,17,2,17,0.00
2014-3-1,43.4,40.3,36.9,35.6,31.0,27.1,88,70,55,29.70,29.56,10,2,10,0.06
2014-3-2,47.3,39.8,35.6,46.8,38.0,30.4,98,94,75,29.75,29.56,21,2,21,0.74
2014-3-3,56.7,49.0,45.9,49.7,45.5,43.6,97,88,64,29.91,29.69,20,4,20,0.25
2014-3-4,52.4,47.9,41.3,50.1,46.6,40.5,98,95,88,29.98,29.83,18,3,18,0.36
2014-3-5,57.7,52.1,47.9,53.4,50.3,47.4,99,94,80,29.84,29.44,18,3,18,1.30
2014-3-6,53.9,50.5,48.0,49.1,46.6,44.9,94,87,76,30.07,29.49,14,6,22,0.23
2014-3-7,58.9,51.3,46.5,46.7,43.7,41.3,90,76,53,30.29,30.08,16,3,16,0.00
2014-3-8,52.8,47.7,43.0,52.1,44.7,38.1,98,90,72,30.13,29.76,18,2,18,1.01
2014-3-9,59.0,52.0,47.7,51.3,48.5,46.3,97,88,68,30.05,29.83,10,3,15,0.28
2014-3-10,50.1,46.4,42.9,46.5,44.1,40.4,97,92,82,30.48,29.96,8,2,8,0.46
2014-3-11,55.4,46.8,40.4,43.2,40.4,37.5,96,80,58,30.61,30.46,10,1,10,0.00
2014-3-12,60.5,48.3,38.7,42.2,38.5,32.2,96,72,36,30.46,30.17,5,1,9,0.00
2014-3-13,57.2,48.3,41.2,44.8,41.4,37.3,95,78,55,30.20,30.02,12,2,12,0.00
2014-3-14,58.1,51.1,46.3,48.8,44.8,39.8,97,80,54,30.35,29.89,20,4,20,0.08
2014-3-15,59.6,50.0,43.5,51.2,43.7,39.3,95,80,58,30.35,30.19,15,3,15,0.17
2014-3-16,50.9,45.5,40.3,49.6,44.2,39.0,97,95,88,30.23,30.00,16,3,16,0.96
2014-3-17,49.1,43.2,38.2,40.2,36.9,32.9,96,80,56,30.36,30.02,9,2,11,0.01
2014-3-18,48.0,43.9,39.4,44.2,39.3,34.9,90,84,76,30.37,30.19,8,2,8,0.00
2014-3-19,52.2,44.5,37.9,44.6,41.1,35.3,94,88,70,30.23,30.02,22,4,22,0.04
2014-3-20,50.0,41.9,36.1,36.5,34.2,29.7,90,75,50,30.39,30.23,7,2,9,0.01
2014-3-21,50.4,42.7,36.1,37.5,35.3,32.3,93,76,57,30.39,30.30,14,2,14,0.00
2014-3-22,50.7,42.9,34.7,37.6,33.7,25.6,96,72,39,30.34,30.23,9,1,9,0.00
2014-3-23,53.7,45.9,40.3,38.2,36.8,35.3,88,72,52,30.36,30.27,10,2,10,0.00
2014-3-24,66.8,52.9,40.5,41.0,37.7,30.9,88,60,31,30.27,29.88,7,2,7,0.00
2014-3-25,56.7,49.8,45.4,49.1,38.4,-99.9,90,71,39,29.91,29.53,25,-20,25,0.34
2014-3-26,50.6,46.2,42.0,45.3,42.3,39.3,94,86,74,29.65,29.53,11,2,11,0.10
2014-3-27,54.7,47.7,43.8,45.4,43.0,41.6,96,84,65,29.91,29.59,13,3,13,0.02
2014-3-28,52.9,47.6,44.1,49.7,45.0,41.2,95,91,84,29.91,29.70,13,2,13,0.40
2014-3-29,51.2,46.8,45.1,45.7,43.5,42.3,94,89,76,29.83,29.71,18,4,18,0.39
2014-3-30,53.2,46.5,42.2,43.4,40.6,38.9,92,81,59,30.01,29.83,11,4,18,0.04
2014-3-31,59.5,47.6,37.8,42.9,39.6,36.3,95,75,51,30.00,29.73,11,2,15,0.00
2014-4-1,58.6,50.1,43.4,43.9,40.7,36.9,86,71,52,29.92,29.73,9,2,9,0.00
2014-4-2,58.2,49.8,44.2,43.0,40.2,35.2,91,72,43,30.03,29.92,10,3,12,0.00
2014-4-3,56.1,48.0,43.7,45.4,41.7,37.1,89,80,50,30.02,29.90,16,3,16,0.09
2014-4-4,56.2,48.3,42.7,43.5,41.4,37.8,91,78,55,29.99,29.92,15,4,15,0.00
2014-4-5,52.6,48.8,44.9,49.3,45.7,42.1,96,89,79,30.11,29.97,15,3,15,0.09
2014-4-6,55.9,50.9,46.3,49.1,45.1,42.8,92,81,68,30.32,30.11,9,2,9,0.00
2014-4-7,71.0,59.4,50.3,50.8,48.5,42.8,93,70,37,30.33,30.08,11,2,11,0.00
2014-4-8,61.7,53.0,45.5,52.3,48.4,44.4,96,85,65,30.18,30.07,14,4,14,0.32
2014-4-9,56.3,48.3,43.2,44.4,40.7,35.6,96,76,46,30.30,30.17,8,1,8,0.04
2014-4-10,57.7,49.4,42.4,41.9,39.9,35.8,88,71,46,30.30,30.17,9,2,9,0.00
2014-4-11,61.2,51.0,43.0,46.0,42.8,40.1,91,75,54,30.19,30.04,9,2,9,0.00
2014-4-12,59.9,51.1,44.0,45.7,42.4,38.9,89,73,57,30.20,30.08,12,2,12,0.00
2014-4-13,68.0,55.9,42.9,42.9,37.2,27.9,90,54,23,30.32,30.18,13,2,13,0.00
2014-4-14,68.5,55.3,45.2,44.7,38.4,28.8,85,56,25,30.18,30.05,11,2,11,0.00
2014-4-15,59.5,51.0,44.5,44.4,41.3,36.1,91,71,44,30.22,30.08,15,3,15,0.08
2014-4-16,51.9,49.6,47.4,49.6,47.1,43.6,96,91,82,30.09,29.94,17,4,17,0.24
2014-4-17,52.7,49.9,45.0,50.4,48.2,42.8,97,94,85,29.94,29.73,21,4,21,0.54
2014-4-18,58.2,48.9,41.9,43.0,39.4,34.3,94,72,44,30.14,29.92,10,2,10,0.04
2014-4-19,52.4,47.2,43.1,48.8,42.1,37.7,95,83,59,30.18,29.78,19,3,19,0.22
2014-4-20,60.4,52.1,43.9,43.1,40.0,34.3,90,66,43,30.32,30.15,14,2,14,0.00
2014-4-21,63.2,51.9,45.6,45.5,43.2,41.0,93,73,48,30.15,29.86,10,2,10,0.12
2014-4-22,55.1,46.1,40.4,43.3,40.6,37.8,94,82,56,29.92,29.85,19,3,19,0.52
2014-4-23,53.2,47.4,42.7,46.3,43.1,40.3,95,86,69,29.92,29.65,16,4,16,0.20
2014-4-24,55.6,50.7,45.9,49.3,45.2,40.1,95,82,61,29.92,29.60,20,5,20,0.21
2014-4-25,58.7,49.4,42.3,43.2,40.1,36.6,92,72,48,29.92,29.83,12,2,12,0.00
2014-4-26,58.8,49.5,43.0,44.8,38.9,30.4,93,70,36,29.86,29.65,16,3,16,0.16
2014-4-27,53.6,47.6,43.4,44.2,41.3,38.8,94,79,63,30.13,29.66,21,5,21,0.00
2014-4-28,61.3,51.4,41.4,42.0,38.2,33.8,91,64,38,30.38,30.13,10,2,10,0.00
2014-4-29,76.7,62.2,48.0,45.1,38.5,30.9,85,47,20,30.51,30.38,9,2,9,0.00
2014-4-30,81.2,68.5,54.4,49.0,40.9,32.8,57,38,24,30.41,30.15,12,2,12,0.00
2014-5-1,86.5,70.7,55.3,48.2,44.7,33.0,69,43,16,30.16,29.94,9,2,9,0.00
2014-5-2,69.3,62.0,53.4,53.7,48.9,39.6,83,64,36,30.05,29.91,13,4,13,0.01
2014-5-3,60.1,53.4,50.2,49.9,46.5,43.3,88,78,56,29.94,29.82,16,4,16,0.13
2014-5-4,55.4,52.4,50.5,51.7,49.5,48.2,93,90,85,29.88,29.79,13,4,13,0.32
2014-5-5,60.2,52.7,49.0,51.7,48.7,47.1,95,87,67,30.05,29.88,14,3,14,0.07
2014-5-6,62.9,54.4,48.4,50.2,46.2,42.1,94,75,52,30.07,30.00,10,2,10,0.00
2014-5-7,65.7,59.8,53.3,48.3,45.8,41.3,80,61,43,29.94,29.88,8,1,8,0.00
2014-5-8,56.9,52.3,49.4,52.6,47.1,41.8,96,83,64,29.91,29.65,16,3,16,0.39
2014-5-9,56.6,51.3,48.6,47.0,45.3,42.3,90,80,66,29.95,29.74,20,5,20,0.02
2014-5-13,79.0,72.9,64.6,50.7,47.5,41.3,56,42,28,30.37,30.29,11,2,11,0.00
2014-5-14,81.8,69.6,57.4,54.4,50.6,44.9,72,52,37,30.33,30.11,11,1,11,0.00
2014-5-15,81.2,70.1,60.5,55.1,50.1,34.6,71,51,30,30.11,29.94,16,2,16,0.00
2014-5-16,67.8,59.6,53.8,50.4,48.7,45.5,83,68,52,30.12,30.05,17,4,17,0.00
2014-5-17,67.0,58.6,53.6,51.0,48.7,44.6,87,71,47,30.09,29.88,12,2,12,0.00
2014-5-18,67.7,57.1,51.1,53.6,49.9,47.4,90,78,51,29.93,29.81,12,2,12,0.01
2014-5-19,69.0,59.0,50.9,50.6,48.2,41.8,92,70,40,30.08,29.93,12,2,12,0.00
2014-5-20,70.7,59.9,51.4,53.3,49.9,47.5,90,71,45,30.17,30.08,9,2,10,0.00
2014-5-21,66.7,57.8,50.9,52.1,49.2,46.8,86,74,54,30.20,30.14,9,1,9,0.00
2014-5-22,76.0,64.1,54.4,57.0,53.5,50.4,88,70,50,30.16,30.01,12,2,12,0.00
2014-5-23,68.8,61.1,55.9,58.4,55.6,51.8,94,82,68,30.14,29.97,17,3,17,0.20
2014-5-24,62.4,55.9,54.1,52.3,50.4,49.3,86,82,70,30.20,30.14,8,2,8,0.00
2014-5-28,66.8,66.8,66.8,44.8,44.8,44.8,45,45,45,30.09,30.09,3,3,4,0.00
2014-5-30,67.5,63.4,56.2,49.5,47.1,43.8,71,56,44,30.05,30.00,16,3,16,0.00
2014-5-31,73.8,62.7,51.6,52.4,49.3,46.3,87,64,44,30.09,30.03,11,2,11,0.00
2014-6-1,70.7,60.5,51.3,52.9,50.3,47.9,88,71,50,30.13,29.99,10,3,10,0.00
2014-6-2,74.8,63.3,53.0,57.5,53.7,50.8,93,72,52,30.00,29.85,9,2,9,0.00
2014-6-3,63.4,57.5,51.5,52.4,49.7,47.4,87,76,65,30.11,29.91,13,3,13,0.00
2014-6-4,65.3,57.9,51.3,52.6,50.3,48.0,90,77,62,30.16,30.10,12,2,12,0.00
2014-6-5,72.2,60.5,50.5,51.7,47.4,40.6,92,65,37,30.18,30.08,9,2,9,0.00
2014-6-6,75.1,63.2,52.8,50.8,46.5,36.8,86,58,25,30.15,30.08,9,2,10,0.00
2014-6-7,74.3,62.7,54.2,54.9,51.7,48.9,88,69,42,30.20,30.11,11,2,11,0.00
2014-6-8,73.8,62.4,55.0,56.9,54.1,51.6,90,75,52,30.23,30.08,10,2,10,0.00
2014-6-9,68.3,60.2,54.3,54.2,49.8,44.6,90,70,50,30.17,30.08,11,2,11,0.01
2014-6-10,64.3,57.7,51.6,51.2,48.6,45.4,84,72,61,30.14,30.09,5,2,8,0.00
2014-6-11,73.7,62.3,51.5,52.5,49.1,43.3,91,65,35,30.09,29.84,11,2,11,0.00
2014-6-12,69.8,59.9,54.7,53.0,50.9,47.6,87,73,47,29.89,29.81,19,3,19,0.00
2014-6-13,59.6,55.3,52.1,53.8,50.6,45.8,95,85,68,30.12,29.87,14,4,14,0.18
2014-6-14,61.7,55.9,52.9,53.6,49.3,46.2,95,79,67,30.12,30.00,10,3,14,0.13
2014-6-15,62.6,53.9,48.7,54.5,49.8,46.8,96,87,66,30.00,29.85,11,2,11,0.26
2014-6-16,65.2,54.6,47.6,50.0,47.0,43.3,95,78,49,29.99,29.88,10,2,10,0.12
2014-6-17,63.4,55.9,49.7,53.8,50.0,47.5,95,81,67,30.14,29.99,10,3,10,0.06
2014-6-18,65.5,58.0,52.4,53.1,48.9,47.0,83,72,59,30.14,30.03,11,2,11,0.00
2014-6-19,75.5,63.8,53.7,55.1,52.7,50.1,89,69,45,30.04,29.95,13,3,13,0.00
2014-6-20,66.8,58.4,51.7,55.4,48.0,43.6,91,70,50,30.18,30.03,11,2,11,0.03
2014-6-21,70.8,60.3,50.4,47.5,44.5,39.5,79,58,36,30.17,30.04,12,2,12,0.00
2014-6-22,74.8,63.7,52.6,50.0,46.3,40.8,77,55,30,30.13,30.00,12,2,12,0.00
2014-6-23,77.4,65.8,57.2,56.0,51.0,46.3,88,60,41,30.09,29.99,7,2,9,0.02
2014-6-24,75.3,64.9,57.2,58.9,56.0,54.8,94,75,51,30.13,30.03,10,2,10,0.00
2014-6-25,76.1,66.3,57.8,58.6,56.9,54.6,94,73,52,30.04,29.78,13,2,13,0.00
2014-6-26,69.8,63.4,58.2,59.3,55.3,48.6,87,75,64,29.83,29.78,16,4,16,0.00
2014-6-27,70.2,61.1,56.2,58.6,54.9,50.3,91,81,61,29.90,29.73,17,3,17,0.09
2014-6-28,69.8,61.3,55.8,57.5,54.9,50.9,94,80,61,30.05,29.90,17,5,17,0.02
2014-6-29,69.7,61.6,55.6,55.1,53.0,50.6,87,74,58,30.25,30.05,13,2,13,0.00
2014-6-30,74.9,64.5,54.5,56.7,54.5,51.9,92,72,52,30.26,30.02,12,2,13,0.00
2014-7-1,91.0,74.4,59.2,59.5,56.1,51.6,84,56,34,30.03,29.73,12,2,12,0.00
2014-7-2,80.3,69.2,60.8,58.4,55.9,51.6,78,64,39,30.03,29.76,13,3,13,0.00
2014-7-3,69.8,62.0,57.8,55.9,52.2,47.9,82,71,58,30.11,30.03,9,2,9,0.00
2014-7-4,72.9,62.5,55.9,52.9,50.8,48.1,80,67,45,30.09,30.01,7,2,11,0.00
2014-7-5,75.2,64.6,57.2,55.9,53.5,50.8,87,68,45,30.15,30.05,10,2,10,0.00
2014-7-6,83.5,70.1,59.6,63.3,58.3,54.4,83,68,48,30.17,30.11,14,2,14,0.00
2014-7-7,79.1,69.6,62.9,63.8,61.4,59.6,92,76,56,30.15,30.03,12,2,12,0.00
2014-7-8,83.5,71.2,59.6,60.9,58.5,54.0,90,66,45,30.07,29.96,12,2,12,0.00
2014-7-9,79.5,68.8,58.8,59.9,55.7,51.6,81,64,44,30.03,29.92,9,2,9,0.00
2014-7-10,82.5,69.2,57.2,58.0,54.6,50.1,90,63,36,29.98,29.88,12,2,12,0.00
2014-7-11,86.3,73.4,60.4,57.8,55.2,52.3,79,55,33,30.00,29.91,14,2,14,0.00
2014-7-12,88.0,75.1,63.1,61.0,57.7,52.8,81,57,37,30.09,30.00,11,2,11,0.00
2014-7-13,84.8,74.2,63.7,62.7,56.7,51.1,70,55,43,30.11,29.99,13,2,13,0.00
2014-7-14,83.8,70.4,61.0,62.1,59.1,56.8,87,69,46,30.13,30.05,11,3,11,0.00
2014-7-15,84.5,71.0,58.4,62.1,58.1,55.2,90,66,40,30.11,29.97,11,2,11,0.00
2014-7-16,86.7,73.7,62.0,60.3,57.1,52.9,76,58,38,30.02,29.89,7,2,9,0.00
2014-7-17,79.2,65.7,56.4,58.3,55.0,52.7,89,70,44,30.04,29.93,13,3,13,0.00
2014-7-18,74.7,64.6,54.8,58.8,54.2,50.8,88,70,53,30.10,30.02,10,3,10,0.00
2014-7-19,74.3,65.2,59.1,62.8,59.1,55.9,93,81,66,30.08,29.92,17,4,17,0.00
2014-7-20,64.5,58.9,55.4,58.4,54.9,52.8,95,87,68,29.99,29.93,8,2,8,0.08
2014-7-21,73.3,63.5,55.0,55.0,52.6,49.1,94,70,44,30.05,29.97,9,2,9,0.01
2014-7-22,69.0,61.9,56.0,58.6,55.4,52.8,90,80,69,30.09,30.01,8,1,8,0.00
2014-7-23,64.6,60.3,57.4,60.8,57.4,52.4,96,90,77,30.08,29.96,12,2,12,0.76
2014-7-24,63.5,58.4,55.8,59.6,54.2,51.6,93,86,77,30.23,30.06,14,3,14,0.05
2014-7-25,72.5,63.0,55.7,55.8,53.4,51.3,90,72,52,30.21,30.09,11,2,11,0.00
2014-7-26,78.0,65.7,55.8,56.4,54.0,51.1,88,68,45,30.18,30.12,12,2,12,0.00
2014-7-27,80.3,68.3,56.9,58.5,55.1,52.1,85,65,40,30.19,30.08,12,2,12,0.00
2014-7-28,85.3,72.1,59.7,57.5,54.5,51.6,76,56,34,30.13,30.05,13,2,13,0.00
2014-7-29,83.0,72.0,62.3,57.1,54.4,51.0,70,55,37,30.14,30.05,12,2,12,0.00
2014-7-30,81.6,70.5,60.5,60.4,54.3,47.0,87,59,32,30.15,30.07,9,2,14,0.00
2014-7-31,83.8,71.6,60.8,58.5,51.6,46.1,62,50,32,30.12,30.01,13,2,13,0.00
2014-8-1,83.3,71.7,60.7,59.3,53.8,48.6,73,54,38,30.07,29.94,11,2,11,0.00
2014-8-2,82.0,71.3,62.7,62.2,58.2,53.1,85,64,42,30.00,29.94,7,1,7,0.01
2014-8-3,85.2,72.9,60.8,61.2,58.6,55.4,88,63,39,30.07,29.92,10,2,10,0.00
2014-8-4,87.9,74.8,63.1,59.3,55.1,51.7,72,53,30,29.99,29.90,8,2,11,0.00
2014-8-5,76.7,66.3,56.8,59.2,56.5,54.1,91,72,54,30.09,29.95,10,2,10,0.00
2014-8-6,78.3,67.3,58.7,60.8,58.5,54.8,95,75,53,30.16,30.05,9,2,9,0.00
2014-8-7,77.8,67.1,59.3,58.9,55.6,51.1,86,68,47,30.10,30.01,10,2,10,0.00
2014-8-8,76.9,66.1,58.4,55.6,52.3,46.6,84,63,35,30.13,30.05,9,2,9,0.00
2014-8-9,78.2,67.4,57.9,55.2,52.0,49.4,75,59,38,30.17,30.09,12,2,12,0.00
2014-8-10,84.0,71.6,59.3,60.1,55.6,50.8,77,59,44,30.13,29.97,12,2,12,0.00
2014-8-11,94.1,78.3,65.1,64.3,59.1,53.1,78,54,32,29.99,29.79,10,2,10,0.03
2014-8-12,81.0,71.3,65.4,64.0,59.8,55.9,94,68,44,29.90,29.80,10,2,10,0.15
2014-8-13,71.5,64.3,59.5,63.9,59.9,58.4,96,86,67,30.03,29.87,12,3,12,0.69
2014-8-14,68.3,64.1,58.7,62.2,60.1,57.6,97,87,78,30.05,29.98,5,1,5,0.01
2014-8-15,72.6,66.0,62.1,63.4,61.7,59.4,96,87,70,30.08,29.97,7,1,7,0.03
2014-8-16,75.7,67.6,62.2,62.7,60.3,58.4,92,78,62,30.12,30.07,11,2,11,0.00
2014-8-17,79.0,68.9,60.6,62.8,60.0,57.9,92,75,54,30.14,30.04,10,2,10,0.00
2014-8-18,82.8,71.0,61.4,63.8,60.2,54.9,84,70,52,30.05,29.83,13,2,13,0.00
2014-8-19,81.6,71.7,62.5,62.5,59.9,52.3,82,67,51,29.84,29.76,9,2,9,0.00
2014-8-20,70.3,63.1,57.8,56.2,53.3,51.6,82,71,60,30.01,29.83,9,4,12,0.00
2014-8-21,69.8,61.4,54.5,55.3,52.3,50.6,88,73,57,30.06,29.97,10,2,10,0.00
2014-8-22,75.3,64.5,55.8,58.4,55.2,52.5,90,73,52,30.11,30.00,13,2,13,0.00
2014-8-23,80.9,68.6,57.5,59.1,56.8,52.8,92,68,42,30.16,30.00,8,1,11,0.00
2014-8-24,76.7,66.2,57.6,58.6,55.9,53.1,89,71,50,30.00,29.91,8,2,8,0.00
2014-8-25,82.0,70.0,59.1,59.7,56.8,52.7,93,65,39,30.04,29.95,11,1,11,0.00
2014-8-26,87.0,73.7,62.5,60.7,56.5,50.4,83,58,29,30.06,29.96,8,1,8,0.00
2014-8-27,85.0,72.9,63.5,62.0,59.2,55.6,82,64,43,30.04,29.98,11,1,11,0.00
2014-8-28,73.9,65.5,58.3,61.5,58.4,55.3,91,78,63,30.13,30.01,10,2,10,0.00
2014-8-29,72.0,64.2,59.1,59.1,56.9,54.6,92,78,58,30.02,29.93,11,2,11,0.00
2014-8-30,64.5,61.1,58.2,61.2,57.5,54.1,94,88,79,29.99,29.89,10,1,10,0.14
2014-8-31,68.8,61.6,55.3,57.1,54.9,52.3,96,80,58,30.08,29.99,9,1,9,0.10
2014-9-1,73.8,63.8,56.7,57.0,55.0,52.8,89,74,56,30.10,29.99,8,2,8,0.00
2014-9-2,67.7,61.3,55.3,57.3,55.2,53.1,94,81,64,29.99,29.78,16,2,23,0.62
2014-9-3,69.1,60.4,53.9,53.8,52.0,49.1,92,75,53,30.11,29.89,11,2,11,0.01
2014-9-4,72.8,62.0,52.7,56.9,53.8,51.0,94,76,55,30.16,30.07,11,2,11,0.00
2014-9-5,80.8,67.2,56.6,59.4,54.9,51.4,89,67,40,30.17,30.03,10,2,10,0.00
2014-9-6,86.0,71.1,58.9,58.5,53.9,48.5,88,58,28,30.06,29.84,11,2,11,0.00
2014-9-7,84.0,69.9,57.3,58.9,52.9,45.0,88,59,26,29.90,29.80,5,1,7,0.00
2014-9-8,68.8,60.7,56.5,59.3,55.9,52.5,93,85,67,29.95,29.84,11,2,12,0.07
2014-9-9,69.8,61.8,55.4,57.5,54.6,51.5,93,78,61,30.14,29.95,10,2,10,0.10
2014-9-10,68.7,60.4,54.6,55.9,47.4,30.1,95,67,24,30.24,30.14,14,2,16,0.00
2014-9-11,74.2,63.3,55.2,43.1,38.5,33.6,63,42,24,30.32,30.14,8,2,9,0.00
2014-9-12,73.4,63.3,53.0,45.2,39.6,33.2,56,42,25,30.14,29.97,13,2,14,0.00
2014-9-13,80.8,66.6,54.1,48.7,44.5,34.3,76,48,19,30.00,29.85,10,2,10,0.00
2014-9-14,82.5,69.0,55.6,50.2,47.4,43.6,79,49,26,29.92,29.83,10,1,10,0.00
2014-9-15,85.4,70.2,56.6,55.0,50.4,43.1,87,53,23,29.89,29.78,6,1,7,0.00
2014-9-16,71.7,64.4,57.7,57.9,55.1,50.0,87,73,55,29.91,29.81,7,2,12,0.00
2014-9-17,71.6,63.7,59.8,60.0,57.1,55.6,88,79,66,29.89,29.69,10,1,11,0.01
2014-9-18,67.1,62.4,59.2,59.2,58.2,56.6,95,86,75,29.98,29.73,11,3,15,0.04
2014-9-19,75.3,66.5,61.8,60.2,58.2,55.3,88,75,55,30.11,29.98,11,3,12,0.00
2014-9-20,73.0,63.9,57.5,59.6,57.3,54.6,94,80,63,30.12,29.89,12,2,12,0.00
2014-9-21,81.4,67.4,57.1,60.8,57.3,54.6,92,72,46,29.95,29.83,12,2,13,0.00
2014-9-22,70.8,64.7,60.8,58.6,56.9,55.6,89,77,61,30.01,29.91,12,2,12,0.00
2014-9-23,66.2,62.3,59.1,61.9,59.0,56.1,97,89,80,29.93,29.69,6,1,9,0.56
2014-9-24,65.0,61.6,59.0,61.3,59.5,57.4,97,93,81,29.87,29.70,11,2,12,0.76
2014-9-25,68.8,61.1,57.6,59.5,57.1,54.4,97,88,63,29.90,29.83,7,1,11,0.20
2014-9-26,68.0,60.6,56.2,58.4,55.8,53.8,95,84,69,30.11,29.90,17,3,17,0.21
2014-9-27,68.5,60.1,54.6,56.8,54.5,52.1,97,83,62,30.15,30.08,10,1,11,0.01
2014-9-28,63.6,57.5,53.5,56.7,54.3,51.8,96,89,78,30.10,29.91,4,1,7,0.00
2014-9-29,61.2,56.3,53.3,58.0,54.6,52.6,98,94,84,29.99,29.88,12,2,12,0.26
2014-9-30,65.3,57.7,53.1,53.7,51.9,48.9,96,82,60,30.18,29.99,7,2,7,0.01
2014-10-1,64.5,57.3,52.2,52.7,50.5,47.9,94,79,58,30.25,30.17,10,1,10,0.00
2014-10-2,66.3,58.3,52.3,51.8,48.8,45.1,90,72,48,30.32,30.22,10,1,10,0.00
2014-10-3,70.5,59.1,49.8,53.3,49.9,46.8,94,73,52,30.31,30.16,8,1,8,0.00
2014-10-4,70.6,62.1,55.7,56.8,54.5,51.8,92,77,52,30.21,30.14,5,1,7,0.00
2014-10-5,73.1,62.0,54.6,60.9,56.2,52.3,96,81,65,30.17,30.08,7,1,8,0.00
2014-10-6,76.3,64.7,56.7,62.2,58.7,55.3,97,82,60,30.09,29.98,9,1,9,0.00
2014-10-7,67.3,60.9,56.5,60.6,58.1,55.1,98,91,78,29.99,29.92,7,1,7,0.00
2014-10-8,66.5,59.4,56.2,58.5,56.6,55.1,97,91,75,30.04,29.96,8,1,8,0.00
2014-10-9,63.7,57.9,55.2,57.5,55.7,54.3,99,93,80,30.08,30.01,8,1,8,0.01
2014-10-10,65.2,58.2,51.7,57.0,54.8,51.2,99,89,74,30.08,30.01,16,3,16,0.03
2014-10-11,64.0,58.3,53.3,57.3,55.1,50.6,97,90,72,30.21,30.01,12,2,12,0.21
2014-10-12,63.7,57.7,53.3,55.1,53.3,51.6,95,86,68,30.27,30.06,9,2,9,0.01
2014-10-13,68.0,59.8,53.2,55.8,52.2,46.8,96,78,51,30.06,29.65,21,2,21,0.11
2014-10-14,60.2,55.6,51.7,53.9,52.2,50.6,96,88,75,29.85,29.55,16,2,16,0.49
2014-10-15,58.7,54.5,51.8,53.3,51.3,47.1,96,89,80,29.99,29.51,18,3,18,0.40
2014-10-16,67.2,58.1,51.5,51.8,47.9,44.8,91,70,46,30.04,29.82,9,1,9,0.01
2014-10-17,60.3,57.8,55.0,55.0,51.1,44.3,94,79,56,29.85,29.73,8,1,8,0.12
2014-10-18,64.3,59.6,56.8,61.1,58.0,54.6,98,95,89,29.98,29.81,9,1,9,0.13
2014-10-19,72.0,62.5,56.7,59.4,57.1,54.9,97,83,62,29.82,29.68,10,2,16,0.00
2014-10-20,62.6,58.5,53.7,56.9,55.1,52.1,96,89,73,29.81,29.69,10,2,11,0.46
2014-10-21,60.6,56.4,52.7,52.9,51.0,48.3,94,83,70,29.93,29.74,15,4,15,0.08
2014-10-22,56.8,55.1,53.1,54.9,52.7,48.2,97,92,74,29.74,29.57,17,3,17,1.28
2014-10-23,59.6,51.6,48.2,51.3,48.4,44.4,94,89,69,30.02,29.71,21,4,21,0.22
2014-10-24,56.8,51.6,47.8,50.0,47.8,45.4,94,87,74,30.07,29.76,8,1,8,0.21
2014-10-25,60.9,53.3,48.5,54.5,50.5,45.8,97,90,72,29.76,29.27,30,4,30,0.40
2014-10-26,55.1,50.3,47.0,50.7,46.1,44.3,94,86,77,30.17,29.74,19,4,19,0.03
2014-10-27,59.2,51.2,45.6,47.0,44.9,42.5,94,80,60,30.18,29.98,8,2,8,0.01
2014-10-28,58.1,53.1,49.0,54.6,50.4,43.8,97,91,74,29.99,29.85,16,2,16,0.56
2014-10-29,61.7,56.6,53.0,54.1,52.7,50.8,95,87,72,30.14,29.94,16,3,16,0.04
2014-10-30,56.9,54.2,53.1,51.6,50.3,49.4,94,87,78,30.03,29.89,4,0,4,0.00
2014-10-31,53.8,51.8,50.3,49.9,49.0,47.0,95,90,83,29.90,29.82,6,2,9,0.75
2014-11-1,52.6,49.1,46.7,48.8,46.4,44.6,97,91,78,30.07,29.86,8,1,8,0.00
2014-11-2,54.2,49.9,45.0,50.6,47.6,43.4,96,92,75,30.17,30.07,11,2,11,0.18
2014-11-3,56.3,53.8,52.2,53.8,51.8,50.2,95,93,89,30.13,30.02,14,4,14,0.25
2014-11-4,56.5,54.0,52.8,54.5,51.2,47.9,97,90,81,30.30,30.00,16,2,16,0.07
2014-11-5,57.4,54.7,51.8,55.1,52.1,49.5,96,91,81,30.30,29.97,8,1,8,0.33
2014-11-6,62.9,55.5,50.6,56.0,52.2,46.5,97,89,72,30.31,29.78,16,5,25,0.28
2014-11-7,56.4,50.4,45.8,47.9,45.2,41.1,93,83,57,30.50,30.31,7,1,7,0.00
2014-11-8,54.4,47.3,42.0,46.4,43.8,40.9,98,88,73,30.40,30.06,7,1,7,0.00
2014-11-9,53.0,48.5,46.3,50.3,46.3,44.3,96,92,85,30.08,29.82,14,2,14,0.24
2014-11-10,51.4,46.2,41.2,44.8,41.4,36.5,94,84,67,30.21,30.06,6,1,9,0.01
2014-11-11,46.7,40.0,32.4,38.4,24.2,11.2,94,57,30,30.38,30.19,12,1,12,0.00
2014-11-12,44.9,36.7,31.2,15.6,9.5,4.1,51,33,19,30.38,30.12,11,1,14,0.00
2014-11-13,45.8,38.7,32.4,20.9,12.5,7.0,53,35,24,30.12,29.96,8,2,12,0.00
2014-11-14,44.9,36.9,31.5,28.1,19.9,13.8,75,51,30,30.32,30.04,9,1,9,0.00
2014-11-15,45.9,37.1,30.3,27.1,20.7,13.8,79,53,28,30.56,30.32,5,1,7,0.00
2014-11-16,48.5,39.3,31.5,28.7,20.8,14.7,69,48,32,30.54,30.38,9,1,9,0.00
2014-11-17,52.3,40.9,33.4,32.6,26.8,20.5,85,59,30,30.43,30.20,6,1,6,0.00
2014-11-18,46.6,39.9,34.2,38.1,32.9,23.8,93,77,51,30.20,30.09,6,0,6,0.00
2014-11-19,52.2,45.2,37.8,39.8,33.0,26.7,92,64,42,30.10,29.84,8,1,8,0.00
2014-11-20,51.4,47.3,41.5,47.2,43.6,29.4,94,87,49,30.00,29.90,10,2,10,0.10
2014-11-21,50.7,48.6,47.2,49.9,45.9,43.2,97,90,84,29.92,29.31,17,2,17,0.69
2014-11-22,48.0,45.7,44.2,44.0,42.6,41.2,93,89,85,30.15,29.52,14,3,14,0.00
2014-11-23,54.4,47.6,44.1,48.4,44.7,41.6,94,90,77,30.38,30.07,20,3,20,0.52
2014-11-24,51.6,45.6,41.1,50.8,41.5,36.3,97,86,74,30.39,30.09,15,3,15,0.01
2014-11-25,55.9,51.5,47.4,54.6,50.2,46.3,98,95,91,30.25,30.12,23,3,23,0.28
2014-11-26,58.2,56.3,54.6,54.0,53.2,50.5,95,89,79,30.18,29.87,23,4,23,0.00
2014-11-27,57.9,54.9,52.5,52.1,50.4,46.1,93,85,67,29.88,29.68,25,7,25,0.06
2014-11-28,53.3,44.4,36.5,51.1,42.8,35.1,96,94,90,29.68,29.49,21,3,21,1.47
2014-11-29,38.7,30.7,25.9,37.3,24.8,15.0,95,79,54,30.24,29.54,24,3,24,0.04
2014-11-30,36.2,28.8,22.4,25.4,22.9,19.4,93,79,61,30.27,30.14,8,1,8,0.04
2014-12-1,38.6,31.9,27.2,27.7,24.1,19.0,89,73,53,30.26,30.12,5,1,5,0.00
2014-12-2,41.1,34.0,28.3,30.6,28.1,26.0,92,79,62,30.25,29.94,12,2,12,0.00
2014-12-3,47.2,39.5,34.3,34.9,29.7,25.8,79,68,45,29.94,29.77,7,1,7,0.00
2014-12-4,45.8,42.8,40.7,42.6,38.0,33.1,95,83,72,29.97,29.79,8,0,8,0.08
2014-12-5,50.9,47.2,43.4,48.5,44.8,41.8,97,92,78,29.99,29.76,10,1,10,0.11
2014-12-6,53.1,49.1,46.5,50.1,46.9,44.6,96,92,86,30.26,29.81,19,3,19,0.24
2014-12-7,54.7,50.2,44.4,47.4,44.4,40.8,95,81,62,30.26,30.00,8,1,8,0.00
2014-12-8,57.7,51.8,48.5,47.6,44.5,42.0,94,77,58,30.08,29.86,12,2,12,0.47
2014-12-9,59.6,54.8,48.8,55.4,51.4,47.2,95,88,80,29.90,29.71,15,4,21,0.41
2014-12-10,65.1,55.7,51.0,52.9,49.9,44.3,95,82,55,29.71,29.25,27,5,27,0.71
2014-12-11,56.8,50.6,47.5,49.0,45.1,41.0,96,82,63,29.58,29.15,29,4,29,0.45
2014-12-12,52.2,49.2,46.1,46.7,44.8,42.7,91,85,77,30.07,29.52,16,3,22,0.00
2014-12-13,50.4,45.0,40.1,45.1,42.8,38.8,97,92,81,30.25,30.06,7,1,7,0.00
2014-12-14,53.6,43.5,34.4,39.6,34.8,28.2,98,74,43,30.24,30.02,9,1,9,0.01
2014-12-15,53.1,47.3,42.2,36.8,32.3,28.3,74,56,47,30.02,29.85,10,1,10,0.00
2014-12-16,50.0,47.6,44.0,42.1,36.0,30.5,84,65,47,29.87,29.83,5,1,10,0.01
2014-12-17,48.2,45.8,43.4,44.2,41.1,34.9,94,84,67,29.94,29.82,5,1,5,0.16
2014-12-18,48.5,45.7,43.8,45.8,43.9,42.1,96,93,85,29.97,29.73,9,2,9,0.62
2014-12-19,51.4,47.8,45.5,46.4,42.8,38.6,96,83,71,29.97,29.80,14,3,14,0.12
2014-12-20,55.1,47.6,43.7,52.9,45.8,40.3,97,94,83,29.88,29.44,24,3,24,0.63
2014-12-21,54.6,51.4,49.7,50.5,47.6,45.6,92,87,79,30.13,29.54,17,2,17,0.00
2014-12-22,50.1,46.7,43.4,46.8,41.7,39.3,91,83,70,30.40,30.13,6,1,6,0.00
2014-12-23,52.7,45.6,40.4,50.4,42.5,37.1,96,89,76,30.34,30.07,15,2,15,1.19
2014-12-24,43.7,40.8,38.4,40.3,38.8,37.1,96,93,85,30.08,29.92,7,2,7,0.09
2014-12-25,45.7,41.0,37.7,40.4,38.5,36.4,95,91,79,30.32,30.08,7,1,7,0.00
2014-12-26,42.0,39.1,37.2,38.8,37.1,35.1,96,93,82,30.41,30.30,7,1,7,0.01
2014-12-27,49.3,43.5,40.2,44.8,41.1,37.7,97,91,84,30.34,30.04,13,3,19,0.18
2014-12-28,44.2,40.4,38.1,40.6,38.2,36.5,95,92,81,30.24,30.09,8,1,8,0.04
2014-12-29,42.7,37.7,31.6,36.7,29.7,23.6,95,74,54,30.75,30.18,12,2,12,0.00
2014-12-30,36.3,31.5,28.3,24.1,20.3,16.6,78,63,46,30.88,30.75,5,1,7,0.00
2014-12-31,37.7,32.1,28.1,27.0,23.9,21.6,85,72,54,30.75,30.44,8,1,8,0.00
2015-1-1,40.9,34.3,29.5,31.3,27.8,23.9,89,78,61,30.45,30.23,6,1,6,0.00
2015-1-2,41.4,38.6,33.2,39.8,35.8,30.7,95,90,78,30.25,30.11,10,2,10,0.04